Regional Weather Roundup
Issued by NWS Kansas City/Pleasant Hill, MO

Home | Current Version | Previous Version | Graphics & Text | Print | Product List | Glossary Off
Versions: 1 2 3 4 5 6 7 8 9 10 11 12 13 14 15 16 17 18 19 20 21 22 23 24 25 26 27 28 29 30 31 32 33 34 35 36 37 38 39 40 41 42 43 44 45 46 47 48 49 50

183
ASUS43 KEAX 221810
RWREAX

WEATHER ROUNDUP FOR EASTERN KANSAS AND NORTHWEST MISSOURI
NATIONAL WEATHER SERVICE KANSAS CITY/PLEASANT HILL MO
100 PM CDT WED MAR 22 2017

KSZ040-057-103>105-MOZ028-029-037-043-221900-
...KANSAS CITY METROPOLITAN AREA...

CITY           SKY/WX    TMP DP  RH WIND       PRES   REMARKS
K.C. INTL      PTSUNNY   52  26  36 E17G28    30.35F
6HR MIN TEMP:  36; 6HR MAX TEMP:  52;

K.C. DOWNTOWN  SUNNY     54  26  34 E9G20     30.34F
6HR MIN TEMP:  38; 6HR MAX TEMP:  54;

LEES SUMMIT    SUNNY     52  25  35 E12       30.35F
6HR MIN TEMP:  37; 6HR MAX TEMP:  53;

OLATHE - IXD   MOSUNNY   51  23  33 E10G20    30.34F
6HR MIN TEMP:  38; 6HR MAX TEMP:  52;

OLATHE - OJC   SUNNY     51  24  34 SE14G22   30.33F
6HR MIN TEMP:  37; 6HR MAX TEMP:  52;

LAWRENCE       CLOUDY    54  22  28 E9        30.33F

$$

MOZ001>008-011>017-020>025-030>033-038>040-044>046-053-054-221900-
...NORTHERN AND CENTRAL MISSOURI...

CITY           SKY/WX    TMP DP  RH WIND       PRES   REMARKS
ST. JOSEPH     MOSUNNY   52  25  35 E9        30.37F
6HR MIN TEMP:  35; 6HR MAX TEMP:  52;

MOSBY          CLEAR     50  27  40 E7G17     30.37F
WARRENSBURG    CLOUDY    50  28  43 E13       30.35F
WHITEMAN AFB   NOT AVBL
CLINTON        SUNNY     55  28  35 SE13      30.34S
SEDALIA        CLOUDY    50  29  44 E14       30.37S
6HR MIN TEMP:  37; 6HR MAX TEMP:  53;

WARSAW         NOT AVBL
CHILLICOTHE      N/A     45  27  49 E9G18     30.42F
6HR MIN TEMP:  35; 6HR MAX TEMP:  46;

KIRKSVILLE     CLOUDY    43  24  47 SE12      30.44F
6HR MIN TEMP:  30; 6HR MAX TEMP:  43;


$$

MOZ041-047>049-056>058-063>065-088>090-097-221900-
...EASTERN AND SOUTHERN MISSOURI...

CITY           SKY/WX    TMP DP  RH WIND       PRES   REMARKS
ST. LOUIS INTL PTSUNNY   47  21  35 NE10      30.45F
6HR MIN TEMP:  36; 6HR MAX TEMP:  48;

SPIRIT OF STL  SUNNY     48  24  39 NE10G17   30.44F
COLUMBIA       CLOUDY    49  28  44 E12G20    30.39F
JEFFERSON CITY CLOUDY    49  28  44 E13G21    30.39F
ROLLA          SUNNY     49  28  44 NE8G18    30.36F
OSAGE BEACH    SUNNY    N/A N/A N/A E8G17     30.35F
SPRINGFIELD    SUNNY     57  29  34 SE16      30.28F
BRANSON        CLOUDY    48  32  53 E14       30.30F
JOPLIN         CLOUDY    53  30  41 E12       30.28R
WEST PLAINS    SUNNY     55  33  43 E13       30.33F

$$

IAZ060-094-KSZ022-034>040-054-083-096-NEZ052-066-093-221900-
...KANSAS...SOUTHEAST NEBRASKA AND IOWA...

CITY           SKY/WX    TMP DP  RH WIND       PRES   REMARKS
TOPEKA         CLOUDY    53  22  29 E14       30.31F
6HR MIN TEMP:  38; 6HR MAX TEMP:  55;

MANHATTAN      MOSUNNY   54  25  32 E13G20    30.29F
EMPORIA        SUNNY     56  26  31 E18       30.26F
CHANUTE        CLOUDY    56  26  31 E14       30.27F
WICHITA        CLOUDY    53  31  42 E17       30.23F
OMAHA          CLOUDY    45  22  40 SE18      30.36F
LINCOLN        CLOUDY    49  19  30 SE15G22   30.33F
FALLS CITY     MOSUNNY   50  22  33 E13G18    30.34F
LAMONI         CLOUDY    41  27  57 E9        30.42S
DES MOINES     CLOUDY    41  25  53 SE12      30.47S WCI  34

$$





USA.gov is the U.S. government's official web portal to all federal, state and local government web resources and services.